Location: Beuerbach
(48.1459°N, 10.9174°E)
Time: 19:51:10
(UTC+00:00)

SL-16 R/B - Pass Details

Date: 17 August 2024
Orbit: 842 x 845 km, 71.0° (Epoch: 07 September)

Event Time Altitude Azimuth Distance (km) Brightness Sun altitude
Exits shadow 00:57:47 - 283° (WNW) 3,217 5.1 -24.8°
Reaches altitude 10° 01:01:34 10° 313° (NW) 2,474 4.8 -24.6°
Maximum altitude 01:03:24 11° 332° (NNW) 2,369 4.9 -24.4°
Drops below altitude 10° 01:05:15 10° 351° (N) 2,477 5.3 -24.3°
Sets 01:09:45 0° 24° (NNE) 3,416 6.8 -23.9°
